Location: Central Falls
(41.8900°N, 71.3929°W)
Time: 03:26:14
(UTC+00:00)

Tiros 1 - Pass Details

Date: 14 December 2023
Orbit: 625 x 658 km, 48.4° (Epoch: 01 March)

Event Time Altitude Azimuth Distance (km) Brightness Sun altitude
Rises 09:42:50 0° 295° (WNW) 2,982 - -25.6°
Reaches altitude 10° 09:45:15 10° 301° (WNW) 2,072 - -25.2°
Exits shadow 09:49:34 48° 2° (N) 862 7.6 -24.4°
Maximum altitude 09:49:54 49° 16° (NNE) 852 7.7 -24.3°
Drops below altitude 10° 09:54:32 10° 92° (E) 2,070 10.8 -23.5°
Sets 09:56:57 0° 98° (E) 2,979 12.0 -23.0°
